TimeEST,TemperatureF,Dew PointF,Humidity,Sea Level PressureIn,VisibilityMPH,Wind Direction,Wind SpeedMPH,Gust SpeedMPH,PrecipitationIn,Events,Conditions,WindDirDegrees,DateUTC
12:54 AM,46.0,21.9,39,30.16,10.0,WNW,17.3,34.5,N/A,,Clear,290,2011-12-26 05:54:00
1:54 AM,43.0,23.0,45,30.19,10.0,NNW,12.7,24.2,N/A,,Clear,330,2011-12-26 06:54:00
2:54 AM,42.1,23.0,47,30.22,10.0,NNW,16.1,-,N/A,,Clear,330,2011-12-26 07:54:00
3:54 AM,39.9,23.0,51,30.23,10.0,NW,21.9,26.5,N/A,,Clear,320,2011-12-26 08:54:00
4:54 AM,39.9,21.9,49,30.24,10.0,NNW,15.0,20.7,N/A,,Clear,330,2011-12-26 09:54:00
5:54 AM,37.9,21.9,53,30.27,10.0,SSW,9.2,-,N/A,,Clear,200,2011-12-26 10:54:00
6:54 AM,36.0,21.0,55,30.32,10.0,NW,9.2,-,N/A,,Clear,320,2011-12-26 11:54:00
7:54 AM,37.0,23.0,57,30.35,10.0,NW,12.7,-,N/A,,Partly Cloudy,320,2011-12-26 12:54:00
8:54 AM,39.9,24.1,53,30.38,10.0,NW,6.9,-,N/A,,Partly Cloudy,320,2011-12-26 13:54:00
9:54 AM,42.1,24.1,49,30.41,10.0,NNW,5.8,-,N/A,,Partly Cloudy,330,2011-12-26 14:54:00
10:54 AM,44.6,24.8,46,30.41,10.0,NW,11.5,17.3,N/A,,Clear,320,2011-12-26 15:54:00
11:54 AM,46.0,23.0,40,30.37,10.0,NNW,8.1,-,N/A,,Clear,340,2011-12-26 16:54:00
12:54 PM,48.0,23.0,37,30.33,10.0,Calm,Calm,-,N/A,,Clear,0,2011-12-26 17:54:00
1:54 PM,48.9,23.0,36,30.31,10.0,Calm,Calm,-,N/A,,Clear,0,2011-12-26 18:54:00
2:54 PM,50.0,23.0,35,30.30,10.0,Calm,Calm,-,N/A,,Clear,0,2011-12-26 19:54:00
3:54 PM,50.0,23.0,35,30.30,10.0,Calm,Calm,-,N/A,,Clear,0,2011-12-26 20:54:00
4:54 PM,48.0,23.0,37,30.30,10.0,ESE,3.5,-,N/A,,Clear,120,2011-12-26 21:54:00
5:54 PM,46.0,25.0,44,30.30,10.0,Calm,Calm,-,N/A,,Clear,0,2011-12-26 22:54:00
6:54 PM,44.1,25.0,47,30.30,10.0,SE,4.6,-,N/A,,Clear,130,2011-12-26 23:54:00
7:54 PM,43.0,25.0,49,30.31,10.0,SSE,4.6,-,N/A,,Clear,150,2011-12-27 00:54:00
8:54 PM,43.0,26.1,51,30.30,10.0,ESE,4.6,-,N/A,,Clear,120,2011-12-27 01:54:00
9:54 PM,43.0,26.1,51,30.29,10.0,South,4.6,-,N/A,,Clear,180,2011-12-27 02:54:00
10:54 PM,43.0,25.0,49,30.26,10.0,Calm,Calm,-,N/A,,Clear,0,2011-12-27 03:54:00
11:54 PM,41.0,25.0,53,30.23,10.0,ESE,4.6,-,N/A,,Clear,110,2011-12-27 04:54:00